This demonstration page uses our WeatherBlox Daily Observations layout. Learn more.

40.92945, -100.16068

Hourly Observations for June 2, 2017

Temp ( °F °C ) Dew Point ( °F °C ) Humidity (%) Winds ( mph kmh ) Pressure ( in mb ) Visibility ( mi km ) Precip ( " mm )
12:15 am 00:15 Clear 70 21.2 61 16 72 72 SSE 9 15 29.85 1011 10 16.0934 0 0
12:35 am 00:35 Clear 69 20.8 61 16 74 74 SSE 10 17 29.85 1011 10 16.0934 0 0
12:55 am 00:55 Clear 69 20.5 60 15.8 75 75 SSE 10 17 29.85 1011 10 16.0934 0 0
1:15 am 01:15 Clear 68 20.1 60 15.6 75 75 SSE 9 15 29.85 1011 10 16.0934 0 0
1:35 am 01:35 Clear 67 19.6 60 15.5 77 77 SSE 8 13 29.85 1011 10 16.0934 0 0
1:55 am 01:55 Clear 66 19 59 15.2 79 79 SSE 7 11 29.88 1012 10 16.0934 0 0
2:15 am 02:15 Clear 65 18.4 59 14.8 80 80 S 7 11 29.88 1012 10 16.0934 0 0
2:35 am 02:35 Clear 66 18.8 58 14.6 77 77 S 9 15 29.88 1012 10 16.0934 0 0
2:55 am 02:55 Clear 65 18.6 58 14.2 76 76 S 7 11 29.88 1012 10 16.0934 0 0
3:15 am 03:15 Clear 65 18.6 57 14 75 75 SSE 5 7 29.88 1012 10 16.0934 0 0
3:35 am 03:35 Clear 64 17.7 57 13.7 78 78 SSE 6 9 29.88 1012 10 16.0934 0 0
3:55 am 03:55 Clear 64 17.9 56 13.6 76 76 SSE 7 11 29.88 1012 10 16.0934 0 0
4:15 am 04:15 Clear 64 17.5 56 13.6 78 78 SSE 7 11 29.88 1012 10 16.0934 0 0
4:35 am 04:35 Clear 63 17.4 56 13.5 78 78 SSE 6 9 29.88 1012 10 16.0934 0 0
4:55 am 04:55 Clear 62 16.7 56 13.3 80 80 S 5 7 29.88 1012 10 16.0934 0 0
5:15 am 05:15 Clear 62 16.6 56 13.3 81 81 SE 7 11 29.91 1013 10 16.0934 0 0
5:35 am 05:35 Clear 60 15.8 55 13 84 84 SE 5 7 29.94 1014 10 16.0934 0 0
5:55 am 05:55 Clear 60 15.5 56 13.2 86 86 E 6 9 29.94 1014 10 16.0934 0 0
6:15 am 06:15 Sunny 60 15.5 56 13.2 86 86 E 7 11 29.94 1014 10 16.0934 0 0
6:35 am 06:35 Sunny 61 16 56 13.2 84 84 E 6 9 29.94 1014 10 16.0934 0 0
6:55 am 06:55 Sunny 62 16.6 56 13.6 83 83 ESE 7 11 29.91 1013 10 16.0934 0 0
7:15 am 07:15 Sunny 64 17.7 57 14 79 79 SE 7 11 29.91 1013 10 16.0934 0 0
7:35 am 07:35 Sunny 65 18.3 57 14 76 76 SE 8 13 29.91 1013 10 16.0934 0 0
7:55 am 07:55 Sunny 65 18.6 57 14 75 75 SE 6 9 29.94 1014 10 16.0934 0 0
8:15 am 08:15 Sunny 67 19.3 58 14.5 74 74 SSE 6 9 29.94 1014 10 16.0934 0 0
8:35 am 08:35 Sunny 69 20.7 59 14.8 69 69 S 9 15 29.91 1013 10 16.0934 0 0
8:55 am 08:55 Sunny 71 21.8 59 14.8 65 65 S 10 17 29.91 1013 10 16.0934 0 0
9:15 am 09:15 Sunny 72 22.4 58 14.7 62 62 S 10 17 29.91 1013 10 16.0934 0 0
9:35 am 09:35 Sunny 74 23.3 59 14.9 59 59 S 9 15 29.91 1013 10 16.0934 0 0
9:55 am 09:55 Sunny 75 23.8 59 14.8 57 57 SSW 12 19 29.85 1011 10 16.0934 0 0
10:15 am 10:15 Sunny 76 24.6 59 15 55 55 SSW 9 15 29.88 1012 10 16.0934 0 0
10:35 am 10:35 Sunny 78 25.4 59 14.8 52 52 S 9 15 29.85 1011 10 16.0934 0 0
10:55 am 10:55 Sunny 79 26.2 58 14.4 48 48 S 14 22 29.85 1011 10 16.0934 0 0
11:15 am 11:15 Sunny 80 26.7 59 15.1 49 49 S 16 26 29.83 1010 10 16.0934 0 0
11:35 am 11:35 Sunny 81 27.2 59 15.2 48 48 SSW 17 28 29.83 1010 10 16.0934 0 0
11:55 am 11:55 Sunny 82 27.6 57 14.1 44 44 S 15 24 29.83 1010 10 16.0934 0 0
12:15 pm 12:15 Sunny 84 28.7 56 13.6 40 40 S 18 30 29.83 1010 10 16.0934 0 0
12:35 pm 12:35 Sunny 84 29 56 13.1 38 38 S 14 22 29.83 1010 10 16.0934 0 0
12:55 pm 12:55 Sunny 85 29.2 53 11.6 34 34 S 21 33 29.83 1010 10 16.0934 0 0
1:15 pm 13:15 Sunny 85 29.6 53 11.5 33 33 S 17 28 29.83 1010 10 16.0934 0 0
1:35 pm 13:35 Sunny 85 29.7 50 10.1 30 30 S 20 31 29.83 1010 10 16.0934 0 0
1:55 pm 13:55 Sunny 86 30.2 50 9.8 28 28 S 17 28 29.83 1010 10 16.0934 0 0
2:15 pm 14:15 Sunny 86 30.2 51 10.5 29 29 S 17 28 29.83 1010 10 16.0934 0 0
2:35 pm 14:35 Sunny 86 30.1 51 10.5 30 30 S 21 33 29.77 1008 10 16.0934 0 0
2:55 pm 14:55 Sunny 87 30.5 52 10.9 30 30 SSW 22 35 29.77 1008 10 16.0934 0 0
3:15 pm 15:15 Sunny 87 30.5 52 10.9 30 30 S 15 24 29.77 1008 10 16.0934 0 0
3:35 pm 15:35 Sunny 86 30.2 50 10.1 29 29 S 18 30 29.77 1008 10 16.0934 0 0
3:55 pm 15:55 Sunny 87 30.4 48 9 26 26 S 22 35 29.77 1008 10 16.0934 0 0
4:15 pm 16:15 Sunny 87 30.6 52 11.3 30 30 S 17 28 29.77 1008 10 16.0934 0 0
4:35 pm 16:35 Sunny 86 30.2 50 10.2 29 29 S 18 30 29.77 1008 10 16.0934 0 0
4:55 pm 16:55 Sunny 86 30.1 50 10.1 29 29 SSE 20 31 29.74 1007 10 16.0934 0 0
5:15 pm 17:15 Sunny 86 30.1 50 10 29 29 S 21 33 29.74 1007 10 16.0934 0 0
5:35 pm 17:35 Sunny 86 30 51 10.5 30 30 S 18 30 29.74 1007 10 16.0934 0 0
5:55 pm 17:55 Sunny 86 29.9 50 10.2 29 29 S 21 33 29.74 1007 10 16.0934 0 0
6:15 pm 18:15 Sunny 84 29.1 50 10.2 31 31 SSE 22 35 29.77 1008 10 16.0934 0 0
6:35 pm 18:35 Sunny 84 29 52 11.2 33 33 S 18 30 29.77 1008 10 16.0934 0 0
7:15 pm 19:15 Sunny 81 27.4 53 11.6 37 37 S 16 26 29.77 1008 10 16.0934 0 0
7:35 pm 19:35 Sunny 80 26.7 53 11.8 40 40 S 18 30 29.77 1008 10 16.0934 0 0
7:55 pm 19:55 Sunny 79 26.2 54 12 41 41 S 15 24 29.77 1008 10 16.0934 0 0
8:15 pm 20:15 Sunny 79 26 55 12.5 43 43 S 15 24 29.77 1008 10 16.0934 0 0
8:35 pm 20:35 Sunny 77 25.1 56 13.1 47 47 SSE 10 17 29.83 1010 10 16.0934 0 0
8:55 pm 20:55 Sunny 76 24.5 56 13.3 50 50 S 10 17 29.83 1010 10 16.0934 0 0
9:15 pm 21:15 Clear 75 23.8 56 13.5 53 53 S 12 19 29.83 1010 10 16.0934 0 0
9:35 pm 21:35 Clear 74 23.6 56 13.5 53 53 S 10 17 29.85 1011 10 16.0934 0 0
9:55 pm 21:55 Clear 73 23 56 13.5 55 55 S 10 17 29.88 1012 10 16.0934 0 0
10:15 pm 22:15 Clear 73 23 56 13.5 55 55 S 12 19 29.88 1012 10 16.0934 0 0
10:35 pm 22:35 Clear 72 22.3 57 13.7 58 58 S 12 19 29.88 1012 10 16.0934 0 0
10:55 pm 22:55 Clear 72 22 57 13.8 60 60 S 10 17 29.91 1013 10 16.0934 0 0
11:15 pm 23:15 Clear 71 21.7 57 14 62 62 S 10 17 29.91 1013 10 16.0934 0 0
11:35 pm 23:35 Clear 71 21.5 57 14 62 62 S 9 15 29.91 1013 10 16.0934 0 0
11:55 pm 23:55 Clear 70 21 58 14.2 65 65 S 8 13 29.91 1013 10 16.0934 0 0

Powered by AerisWeather